This is the latest recevied weather packets stored in our database for station/object WD4IXD. If no packets are shown the sender has not sent any weather packets the latest 10 day(s).
| Time | Temp. | Humidity | Pressure | Rain* | Wind** | Luminosity | Snow |
|---|---|---|---|---|---|---|---|
| 1777684203 | 15.56° C | 19% | 1019.7 hPa | 0 mm | - | 30 W/m² | - |
| 1777683915 | 15.56° C | 19% | 1019.7 hPa | 0 mm | - | 30 W/m² | - |
| 1777683604 | 15.56° C | 20% | 1019.7 hPa | 0 mm | - | 33 W/m² | - |
| 1777683315 | 15.56° C | 20% | 1019.7 hPa | 0 mm | - | 49 W/m² | - |
| 1777683004 | 16.11° C | 18% | 1019.6 hPa | 0 mm | - | 35 W/m² | - |
| 1777682715 | 16.11° C | 18% | 1019.7 hPa | 0 mm | - | 37 W/m² | - |
| 1777682404 | 16.11° C | 18% | 1019.7 hPa | 0 mm | - | 84 W/m² | - |
| 1777682116 | 16.11° C | 18% | 1019.7 hPa | 0 mm | - | 192 W/m² | - |
| 1777681804 | 16.67° C | 18% | 1019.6 hPa | 0 mm | - | 214 W/m² | - |
| 1777681515 | 16.67° C | 18% | 1019.6 hPa | 0 mm | - | 225 W/m² | - |
| 1777681204 | 16.67° C | 18% | 1019.5 hPa | 0 mm | - | 257 W/m² | - |
| 1777680915 | 16.67° C | 18% | 1019.5 hPa | 0 mm | - | 211 W/m² | - |
| 1777680604 | 16.67° C | 18% | 1019.5 hPa | 0 mm | - | 290 W/m² | - |
| 1777680315 | 16.67° C | 18% | 1019.5 hPa | 0 mm | - | 308 W/m² | - |
| 1777680004 | 16.11° C | 19% | 1019.5 hPa | 0 mm | - | 322 W/m² | - |
| 1777679715 | 16.67° C | 18% | 1019.5 hPa | 0 mm | - | 339 W/m² | - |
| 1777679404 | 16.67° C | 18% | 1019.5 hPa | 0 mm | - | 359 W/m² | - |
| 1777679115 | 16.67° C | 18% | 1019.5 hPa | 0 mm | - | 378 W/m² | - |
| 1777678804 | 17.22° C | 18% | 1019.5 hPa | 0 mm | - | 396 W/m² | - |
| 1777678515 | 17.22° C | 18% | 1019.5 hPa | 0 mm | - | 413 W/m² | - |
| 1777678204 | 17.22° C | 19% | 1019.5 hPa | 0 mm | - | 425 W/m² | - |
| 1777677915 | 16.67° C | 19% | 1019.4 hPa | 0 mm | - | 445 W/m² | - |
| 1777677604 | 16.67° C | 19% | 1019.3 hPa | 0 mm | - | 462 W/m² | - |
| 1777677315 | 16.67° C | 19% | 1019.3 hPa | 0 mm | - | 476 W/m² | - |
| 1777677004 | 16.67° C | 19% | 1019.3 hPa | 0 mm | - | 496 W/m² | - |
* Rain latest hour (hover to see other rain measurements)
** Current wind speed in m/s (hover to see current wind gust speed)